Weather History for Scappoose, OR

Change the Weather History Date:

Sunday, February 10, 2013

  Actual Average Record
Temperature  
Mean Temperature 39 °F -  
Max Temperature 47 °F - 57 °F (2005)
Min Temperature 32 °F - 26 °F (2001)
Degree Days  
Heating Degree Days 25    
Month to date heating degree days 233  
Since 1 July heating degree days 2978  
Cooling Degree Days 0    
Month to date cooling degree days 0  
Year to date cooling degree days 0  
Moisture  
Dew Point 34 °F    
Average Humidity 80    
Maximum Humidity 100    
Minimum Humidity 60    
Precipitation  
Precipitation 0.00 in - 0.37 in (2009)
Month to date precipitation 0.24  
Year to date precipitation 2.28  
Sea Level Pressure  
Sea Level Pressure 30.33 in    
Wind  
Wind Speed 4 mph (NW)    
Max Wind Speed 12 mph    
Max Gust Speed 13 mph    
Visibility 8 miles    
Events Fog    
T = Trace of Precipitation, MM = Missing Value Source: NWS Daily Summary

Daily Weather History Graph

Daily Weather History Graph

Search for Another Location

Airport:

Trip Planner

Search our weather history database for the weather conditions in past years. The results will help you decide how hot, cold, wet, or windy it might be!

Date:

Astronomy

Feb. 10, 2013 Rise Set
Actual Time 7:20 AM PST 5:31 PM PST
Civil Twilight 6:49 AM PST 6:02 PM PST
Nautical Twilight 6:14 AM PST 6:37 PM PST
Astronomical Twilight 5:40 AM PST 7:11 PM PST
Moon 7:09 AM PST (2/10) 6:34 PM PST (2/10)
Length of Visible Light 11h 12m
Length of Day
10h 10m
New Moon, 0% of the Moon is Illuminated
Feb 10
New Moon
Feb 17
First Quarter
Feb 25
Full
Mar 4
Last Quarter
Mar 11
New

Hourly Weather History & Observations

Time (PST) Temp. Windchill Dew Point Humidity Pressure Visibility Wind Dir Wind Speed Gust Speed Precip Events Conditions
12:24 AM 37.4 °F - 35.6 °F 93% 30.31 in 1.8 mi Calm Calm - N/A   Partly Cloudy
12:28 AM 37.4 °F - 37.4 °F 100% 30.31 in 3.0 mi Calm Calm - N/A   Clear
12:37 AM 35.6 °F - 35.6 °F 100% 30.31 in 1.5 mi Calm Calm - N/A   Clear
12:50 AM 35.6 °F - 35.6 °F 100% 30.31 in 3.0 mi Calm Calm - N/A   Clear
12:53 AM 36.0 °F 33.3 °F 35.1 °F 97% 30.31 in 5.0 mi WNW 3.5 mph - N/A   Clear
1:20 AM 35.6 °F - 33.8 °F 93% 30.31 in 2.5 mi Calm Calm - N/A   Partly Cloudy
1:22 AM 35.6 °F - 33.8 °F 93% 30.31 in 1.0 mi Calm Calm - N/A   Mist
1:29 AM 35.6 °F - 35.6 °F 100% 30.31 in 0.5 mi Calm Calm - N/A Fog Fog
1:51 AM 35.6 °F - 33.8 °F 93% 30.31 in 1.8 mi Calm Calm - N/A   Overcast
1:53 AM 35.1 °F 32.2 °F 34.0 °F 96% 30.32 in 5.0 mi West 3.5 mph - N/A   Overcast
2:03 AM 35.6 °F 32.8 °F 33.8 °F 93% 30.32 in 9.0 mi NNW 3.5 mph - N/A   Mostly Cloudy
2:45 AM 33.8 °F - 32.0 °F 93% 30.32 in 6.0 mi Calm Calm - N/A   Mostly Cloudy
2:53 AM 34.0 °F 29.8 °F 33.1 °F 96% 30.32 in 9.0 mi WNW 4.6 mph - N/A   Overcast
3:53 AM 35.1 °F - 34.0 °F 96% 30.32 in 10.0 mi Calm Calm - N/A   Overcast
4:53 AM 34.0 °F - 33.1 °F 96% 30.32 in 10.0 mi Calm Calm - N/A   Overcast
5:38 AM 33.8 °F - 33.8 °F 100% 30.33 in 10.0 mi Calm Calm - N/A   Overcast
5:53 AM 35.1 °F 32.2 °F 33.1 °F 92% 30.34 in 10.0 mi WNW 3.5 mph - N/A   Overcast
6:18 AM 32.0 °F - 30.2 °F 93% 30.33 in 10.0 mi Calm Calm - N/A   Mostly Cloudy
6:51 AM 33.8 °F 30.8 °F 30.2 °F 87% 30.34 in 10.0 mi West 3.5 mph - N/A   Overcast
6:53 AM 33.1 °F 30.0 °F 30.9 °F 92% 30.34 in 10.0 mi WNW 3.5 mph - N/A   Overcast
7:53 AM 35.1 °F - 33.1 °F 92% 30.35 in 10.0 mi Calm Calm - N/A   Overcast
8:01 AM 35.6 °F - 33.8 °F 93% 30.35 in 10.0 mi Calm Calm - N/A   Overcast
8:53 AM 39.0 °F 36.8 °F 36.0 °F 89% 30.36 in 10.0 mi North 3.5 mph - N/A   Overcast
9:53 AM 43.0 °F 40.3 °F 37.0 °F 80% 30.36 in 10.0 mi NNW 4.6 mph - N/A   Overcast
10:18 AM 42.8 °F 40.1 °F 37.4 °F 81% 30.36 in 10.0 mi NNW 4.6 mph - N/A   Overcast
10:53 AM 45.0 °F 41.2 °F 36.0 °F 71% 30.36 in 10.0 mi North 6.9 mph - N/A   Mostly Cloudy
11:00 AM 44.6 °F 40.2 °F 35.6 °F 71% 30.36 in 10.0 mi North 8.1 mph - N/A   Scattered Clouds
11:53 AM 46.0 °F 42.5 °F 36.0 °F 68% 30.35 in 10.0 mi NW 6.9 mph - N/A   Mostly Cloudy
12:01 PM 44.6 °F 42.2 °F 35.6 °F 71% 30.34 in 10.0 mi NW 4.6 mph - N/A   Mostly Cloudy
12:53 PM 46.0 °F 42.5 °F 35.1 °F 66% 30.34 in 10.0 mi North 6.9 mph - N/A   Overcast
1:53 PM 46.0 °F 41.9 °F 34.0 °F 63% 30.33 in 10.0 mi NW 8.1 mph - N/A   Overcast
2:53 PM 45.0 °F 41.2 °F 34.0 °F 65% 30.33 in 10.0 mi North 6.9 mph - N/A   Overcast
3:53 PM 45.0 °F 41.8 °F 34.0 °F 65% 30.33 in 10.0 mi NNW 5.8 mph - N/A   Overcast
4:53 PM 44.1 °F 42.5 °F 34.0 °F 68% 30.33 in 10.0 mi NNW 3.5 mph - N/A   Overcast
5:53 PM 44.1 °F 42.5 °F 34.0 °F 68% 30.33 in 10.0 mi NNW 3.5 mph - N/A   Overcast
6:41 PM 42.8 °F 41.1 °F 35.6 °F 76% 30.33 in 10.0 mi West 3.5 mph - N/A   Overcast
6:53 PM 43.0 °F - 35.1 °F 74% 30.33 in 10.0 mi Calm Calm - N/A   Overcast
7:42 PM 42.8 °F 40.1 °F 35.6 °F 76% 30.33 in 10.0 mi NW 4.6 mph - N/A   Overcast
7:53 PM 43.0 °F 41.3 °F 35.1 °F 74% 30.33 in 10.0 mi WNW 3.5 mph - N/A   Overcast
8:03 PM 42.8 °F 41.1 °F 35.6 °F 76% 30.33 in 10.0 mi West 3.5 mph - N/A   Overcast
8:53 PM 43.0 °F - 35.1 °F 74% 30.34 in 10.0 mi Calm Calm - N/A   Overcast
9:53 PM 43.0 °F 41.3 °F 35.1 °F 74% 30.33 in 10.0 mi West 3.5 mph - N/A   Overcast
10:53 PM 42.1 °F 40.2 °F 34.0 °F 73% 30.33 in 10.0 mi West 3.5 mph - N/A   Overcast
11:53 PM 42.1 °F - 34.0 °F 73% 30.33 in 10.0 mi Calm Calm - N/A   Overcast